[[{"header":{"parameterUnit":"m.s-1","parameterCategory":1,"la1":30.2991,"la2":30.254,"lo1":-89.0895,"lo2":-89.0444,"dy":0.0017,"dx":0.0017,"nx":28,"ny":28,"refTime":"2023-09-02T03:00:00:Z","depth":0,"parameterNumber":2,"parameterNumberName":"U-component_of_WINDS"},"data":[0,0,0,0,0,0,0,0,0,0,0,0,0,0,0,0,0,0,0,0,0,0,0,0,0,0,0,0,0,0,0,0,0,0,0,0,0,0,0,0,0,0,0,0,0,0,0,0,0,0,0,0,0,0,0,0,0,0,-1.668,-1.668,0,-1.6712,-1.6712,-1.6712,-1.674,-1.6741,-1.6741,-1.6741,-1.6772,-1.6773,-1.6773,0,0,0,0,0,0,0,0,0,0,0,0,0,-1.664,-1.6641,-1.6679,-1.668,-1.668,-1.6712,-1.6712,-1.6712,-1.674,-1.6741,-1.6741,-1.6741,-1.6772,-1.6773,-1.6773,0,0,0,0,0,0,0,0,0,0,0,0,0,-1.6663,-1.6641,-1.6679,-1.6698,-1.67,-1.6711,-1.6712,-1.6713,-1.674,-1.6741,-1.6741,-1.6742,-1.6772,-1.6773,-1.6774,-1.6769,0,0,-1.6776,-1.6776,0,0,0,0,0,0,0,0,-1.6662,-1.6665,-1.6695,-1.6697,-1.6699,-1.6722,-1.671,-1.6731,-1.674,-1.6725,-1.6741,-1.6742,-1.6755,-1.6757,-1.6762,-1.677,-1.6772,-1.6776,-1.6776,-1.6777,-1.6777,0,0,0,0,0,0,0,-1.666,-1.6663,-1.6692,-1.6695,-1.6698,-1.6704,-1.6708,-1.6714,-1.6737,-1.6726,-1.6728,-1.6732,-1.6756,-1.6761,-1.6763,-1.6772,-1.6776,-1.6777,-1.6777,-1.6777,-1.6776,-1.6776,0,0,0,0,0,0,-1.6656,-1.6662,-1.6691,-1.6693,-1.6681,-1.6704,-1.6709,-1.6714,-1.6737,-1.6741,-1.6731,-1.6733,-1.676,-1.6762,-1.6764,-1.6759,-1.6777,-1.6778,-1.6778,-1.6777,-1.6776,-1.6775,0,0,0,0,0,0,-1.6655,-1.6658,-1.669,-1.6678,-1.6683,-1.6705,-1.6711,-1.6715,-1.672,-1.6741,-1.6745,-1.6732,-1.676,-1.6763,-1.6767,-1.6761,-1.6778,-1.6779,-1.6777,-1.6776,-1.6776,-1.6749,0,0,0,0,0,0,-1.6654,-1.6658,-1.6657,-1.6678,-1.6683,-1.6693,-1.671,-1.6715,-1.6721,-1.6724,-1.6743,-1.6746,-1.6761,-1.6766,-1.6768,-1.6762,-1.6779,-1.6778,-1.6777,-1.6776,-1.6751,-1.6748,-1.6745,0,0,0,0,0,-1.6652,-1.6648,-1.6657,-1.666,-1.6682,-1.6692,-1.6695,-1.6712,-1.6721,-1.6719,-1.6733,-1.6746,-1.6761,-1.6766,-1.6769,-1.6763,-1.6778,-1.6777,-1.6776,-1.6752,-1.6748,-1.6745,0,0,0,0,0,0,-1.6625,-1.6651,-1.6661,-1.6664,-1.6675,-1.6697,-1.6696,-1.6708,-1.6718,-1.6719,-1.674,-1.6744,-1.6745,-1.6755,-1.676,-1.6759,-1.6771,-1.6771,-1.6752,-1.6749,-1.6746,-1.6743,-1.678,0,0,0,0,0,-1.662,-1.6626,-1.6648,-1.6648,-1.6654,-1.6674,-1.6679,-1.6691,-1.6704,-1.6709,-1.6723,-1.6734,-1.6742,-1.6746,-1.6754,-1.6753,-1.6756,-1.675,-1.6747,-1.6745,-1.6743,-1.6742,-1.6739,-1.6772,-1.6772,-1.6772,0,0,-1.6608,-1.6623,-1.6626,-1.6643,-1.6654,-1.6659,-1.6678,-1.6683,-1.6687,-1.671,-1.6714,-1.6724,-1.6739,-1.6739,-1.674,-1.6747,-1.6735,-1.6743,-1.6741,-1.6741,-1.674,-1.6737,-1.6734,-1.6771,-1.6771,-1.6771,0,0,-1.6589,-1.6602,-1.6603,-1.6613,-1.6629,-1.6642,-1.6642,-1.6662,-1.667,-1.6675,-1.6691,-1.6696,-1.6709,-1.6718,-1.6724,-1.6708,-1.672,-1.671,-1.6694,-1.6693,-1.669,-1.6688,-1.6681,-1.6678,-1.6709,-1.6709,-1.6709,0,-1.6572,-1.6582,-1.6601,-1.6605,-1.6612,-1.6633,-1.6634,-1.6643,-1.666,-1.6664,-1.6672,-1.6687,-1.6698,-1.6701,-1.6697,-1.6702,-1.6701,-1.6707,-1.6689,-1.6687,-1.6685,-1.6679,-1.6676,-1.6708,-1.6708,-1.6708,-1.6708,0,-1.656,-1.6566,-1.6565,-1.6581,-1.6588,-1.659,-1.6609,-1.6613,-1.6625,-1.6637,-1.664,-1.6655,-1.6665,-1.6667,-1.6679,-1.6671,-1.6675,-1.6685,-1.6698,-1.668,-1.6674,-1.6672,-1.6706,-1.6706,-1.6706,-1.6707,0,0,-1.6524,-1.6552,-1.6551,-1.6558,-1.6577,-1.6582,-1.6584,-1.6595,-1.6598,-1.6609,-1.6611,-1.6621,-1.6631,-1.6638,-1.6651,-1.6649,-1.6634,-1.666,-1.6661,-1.6654,-1.6625,-1.6615,-1.6612,-1.6642,-1.6642,-1.6642,-1.6623,0,-1.6508,-1.6514,-1.6531,-1.6532,-1.6537,-1.6557,-1.6559,-1.6571,-1.6582,-1.6588,-1.66,-1.6606,-1.6619,-1.6624,-1.6623,-1.6636,-1.6628,-1.6638,-1.6643,-1.6643,-1.6637,-1.6609,-1.66,-1.6581,-1.6621,-1.6621,-1.662,0,-1.6489,-1.6499,-1.65,-1.6518,-1.6521,-1.6523,-1.6533,-1.6539,-1.6552,-1.656,-1.6567,-1.6581,-1.6584,-1.6597,-1.66,-1.6606,-1.661,-1.6616,-1.6616,-1.6616,-1.6629,-1.6607,-1.6576,-1.6572,-1.6617,-1.6617,-1.6618,0,-1.6461,-1.6475,-1.6477,-1.6483,-1.6505,-1.6505,-1.6514,-1.6527,-1.6532,-1.6542,-1.6545,-1.6554,-1.6559,-1.6566,-1.6581,-1.659,-1.6582,-1.6597,-1.6588,-1.6588,-1.6585,-1.6584,-1.6552,-1.6589,-1.6589,-1.6589,-1.6589,0,-1.644,-1.6439,-1.6465,-1.6466,-1.6466,-1.6486,-1.6485,-1.6495,-1.6507,-1.651,-1.6528,-1.653,-1.6552,-1.6556,-1.6568,-1.6568,-1.6571,-1.6577,-1.6579,-1.6574,-1.6573,-1.6575,-1.6576,-1.6589,-1.6589,-1.6589,-1.6589,0,-1.6408,-1.6426,-1.6429,-1.6449,-1.6454,-1.6453,-1.6469,-1.6471,-1.6483,-1.6487,-1.6488,-1.6508,-1.6513,-1.653,-1.654,-1.6549,-1.6544,-1.6551,-1.654,-1.6542,-1.6531,-1.6531,-1.6498,-1.6494,-1.6535,-1.6535,-1.6534,0,-1.6393,-1.6393,-1.6413,-1.6416,-1.6424,-1.643,-1.6435,-1.6454,-1.6459,-1.6473,-1.6472,-1.648,-1.6487,-1.6495,-1.6509,-1.6517,-1.6523,-1.6511,-1.6524,-1.6518,-1.6521,-1.652,-1.6519,-1.6507,-1.6507,-1.6506,-1.6506,0,-1.6363,-1.6372,-1.6379,-1.6388,-1.6394,-1.6403,-1.6412,-1.6414,-1.6435,-1.6439,-1.6446,-1.6451,-1.6461,-1.6468,-1.6478,-1.6486,-1.6499,-1.6502,-1.65,-1.6494,-1.6486,-1.6489,-1.653,-1.6502,-1.6503,-1.6503,-1.6503,-1.6503,-1.6338,-1.6339,-1.6353,-1.6359,-1.6369,-1.6377,-1.6379,-1.6391,-1.6397,-1.6407,-1.6418,-1.6423,-1.6435,-1.645,-1.6457,-1.646,-1.6467,-1.6465,-1.6464,-1.6463,-1.646,-1.6487,-1.6462,-1.6463,-1.6463,-1.6463,-1.6463,0,-1.6308,-1.6318,-1.6324,-1.6337,-1.6342,-1.6355,-1.6366,-1.6369,-1.6373,-1.6383,-1.639,-1.6396,-1.6403,-1.6418,-1.6425,-1.6425,-1.6431,-1.6426,-1.6425,-1.6427,-1.6454,-1.6454,-1.6421,-1.6421,-1.6421,-1.6421,-1.6421,-1.6421,-1.6293,-1.6294,-1.6304,-1.6309,-1.6319,-1.6324,-1.6329,-1.6336,-1.6345,-1.6351,-1.6357,-1.6367,-1.6378,-1.6387,-1.6393,-1.6397,-1.6398,-1.6391,-1.6397,-1.6421,-1.6425,-1.6429,-1.6429,-1.6391,-1.6391,-1.6369,-1.6369,-1.6369]},{"header":{"parameterUnit":"m.s-1","parameterCategory":1,"la1":30.2991,"la2":30.254,"lo1":-89.0895,"lo2":-89.0444,"dy":0.0017,"dx":0.0017,"nx":28,"ny":28,"refTime":"2023-09-02T03:00:00:Z","depth":0,"parameterNumber":3,"parameterNumberName":"V-component_of_WINDS"},"data":[0,0,0,0,0,0,0,0,0,0,0,0,0,0,0,0,0,0,0,0,0,0,0,0,0,0,0,0,0,0,0,0,0,0,0,0,0,0,0,0,0,0,0,0,0,0,0,0,0,0,0,0,0,0,0,0,0,0,1.2627,1.2626,0,1.2609,1.2608,1.2608,1.2571,1.257,1.2569,1.2568,1.2549,1.2549,1.2549,0,0,0,0,0,0,0,0,0,0,0,0,0,1.2629,1.2629,1.2627,1.2626,1.2626,1.2609,1.2608,1.2608,1.2571,1.257,1.2569,1.2568,1.2549,1.2549,1.2549,0,0,0,0,0,0,0,0,0,0,0,0,0,1.2621,1.2629,1.2627,1.2605,1.2603,1.2609,1.2608,1.2608,1.2571,1.257,1.2569,1.2568,1.2549,1.2549,1.2549,1.2574,0,0,1.255,1.255,0,0,0,0,0,0,0,0,1.2621,1.2621,1.2609,1.2607,1.2605,1.2591,1.2602,1.2596,1.2571,1.2583,1.2568,1.2567,1.2564,1.2563,1.2562,1.2573,1.2572,1.255,1.255,1.2551,1.2551,0,0,0,0,0,0,0,1.2622,1.2621,1.2619,1.2609,1.2606,1.2597,1.2594,1.2601,1.258,1.2582,1.2579,1.2578,1.2562,1.2562,1.2561,1.2572,1.255,1.2551,1.2551,1.2551,1.2602,1.2604,0,0,0,0,0,0,1.2626,1.2622,1.262,1.2619,1.261,1.2598,1.2595,1.2596,1.258,1.2576,1.2579,1.2576,1.2562,1.2561,1.256,1.2588,1.2551,1.2551,1.2551,1.2601,1.2603,1.2604,0,0,0,0,0,0,1.2626,1.2626,1.2621,1.262,1.2618,1.2599,1.2601,1.2597,1.2596,1.2577,1.2573,1.2582,1.2561,1.256,1.2571,1.2587,1.2551,1.2551,1.26,1.2602,1.2603,1.2644,0,0,0,0,0,0,1.2626,1.2626,1.2635,1.262,1.2619,1.2632,1.2602,1.2597,1.2596,1.2593,1.2579,1.2576,1.256,1.2571,1.2571,1.2587,1.2551,1.2598,1.2601,1.2603,1.2641,1.2647,1.2652,0,0,0,0,0,1.2626,1.2647,1.2636,1.2636,1.2629,1.2633,1.2632,1.2613,1.2598,1.2607,1.2595,1.2576,1.2585,1.2572,1.2572,1.2588,1.2597,1.26,1.2603,1.2638,1.2645,1.2651,0,0,0,0,0,0,1.2663,1.2644,1.2632,1.2648,1.2642,1.2626,1.2637,1.2621,1.262,1.2616,1.2593,1.259,1.2605,1.2597,1.2583,1.2611,1.2588,1.2591,1.2615,1.2622,1.2627,1.2629,1.2552,0,0,0,0,0,1.2673,1.2678,1.2661,1.2677,1.2675,1.2657,1.2657,1.2644,1.2637,1.2634,1.2623,1.2617,1.2618,1.262,1.262,1.264,1.2636,1.2651,1.2656,1.2661,1.2663,1.2674,1.268,1.2613,1.2613,1.2613,0,0,1.2694,1.2684,1.2688,1.2684,1.2678,1.2683,1.2655,1.2661,1.2665,1.2635,1.2645,1.2637,1.2628,1.2644,1.265,1.2638,1.2681,1.2664,1.2668,1.2668,1.2678,1.2684,1.269,1.2615,1.2614,1.2614,0,0,1.2734,1.2727,1.274,1.2735,1.2727,1.2715,1.2718,1.2705,1.2698,1.2708,1.2686,1.269,1.2693,1.2688,1.2686,1.2726,1.2709,1.2727,1.2755,1.2766,1.2771,1.2776,1.2791,1.2797,1.273,1.273,1.273,0,1.2761,1.2768,1.2749,1.2757,1.2756,1.273,1.2743,1.2739,1.2731,1.2731,1.2718,1.2722,1.2714,1.2729,1.2739,1.2738,1.2741,1.2728,1.2772,1.2777,1.2781,1.2795,1.28,1.2732,1.2732,1.2732,1.2732,0,1.2802,1.2807,1.2818,1.2812,1.2813,1.2823,1.2806,1.2809,1.2795,1.2785,1.2796,1.2786,1.2784,1.2787,1.2773,1.28,1.2793,1.2777,1.2753,1.279,1.2803,1.2808,1.2736,1.2735,1.2734,1.2734,0,0,1.2864,1.2848,1.2852,1.285,1.2839,1.2843,1.2853,1.2852,1.2855,1.2851,1.2859,1.2862,1.2847,1.2845,1.2831,1.2841,1.2874,1.2823,1.2822,1.2833,1.2904,1.2917,1.2923,1.2863,1.2864,1.2865,1.2905,0,1.2902,1.2918,1.2902,1.2921,1.2926,1.2902,1.2911,1.2906,1.2896,1.29,1.2889,1.2892,1.2872,1.2871,1.2879,1.2868,1.2888,1.2865,1.287,1.2871,1.2873,1.293,1.2943,1.2981,1.291,1.291,1.2911,0,1.2948,1.2947,1.2968,1.2957,1.2958,1.2967,1.2965,1.2968,1.2962,1.2955,1.2953,1.2937,1.2946,1.2923,1.2936,1.2921,1.2922,1.2917,1.2918,1.2918,1.2893,1.2931,1.2993,1.2999,1.2919,1.2918,1.2917,0,1.2992,1.2996,1.3009,1.3007,1.2995,1.3001,1.2997,1.2989,1.299,1.2989,1.2989,1.2988,1.2988,1.2988,1.2973,1.2957,1.2988,1.2963,1.2982,1.2983,1.2989,1.2989,1.3052,1.299,1.299,1.299,1.2989,0,1.3037,1.305,1.3029,1.3037,1.3051,1.3032,1.3048,1.304,1.3034,1.304,1.3019,1.3026,1.3004,1.3008,1.2996,1.3009,1.3009,1.3003,1.3,1.3006,1.3006,1.3006,1.3003,1.2991,1.2991,1.299,1.299,0,1.3089,1.3074,1.3087,1.3075,1.3072,1.3084,1.3073,1.308,1.307,1.3078,1.3079,1.3063,1.3067,1.3052,1.3053,1.3044,1.3064,1.3056,1.3066,1.3064,1.3084,1.3082,1.3149,1.3157,1.3089,1.309,1.3091,0,1.3118,1.3128,1.3117,1.312,1.3117,1.3122,1.3123,1.3105,1.3107,1.3101,1.3109,1.3112,1.3113,1.312,1.3109,1.311,1.3102,1.3125,1.3102,1.3107,1.3103,1.3103,1.3104,1.313,1.3131,1.3131,1.3132,0,1.3172,1.3165,1.3167,1.3168,1.317,1.317,1.3167,1.3171,1.3152,1.3155,1.3159,1.316,1.3162,1.3165,1.3164,1.3159,1.3143,1.314,1.3144,1.315,1.3156,1.3154,1.308,1.3138,1.3137,1.3137,1.3137,1.3136,1.3214,1.3222,1.3216,1.322,1.3217,1.3216,1.3222,1.3213,1.3217,1.3217,1.3206,1.3213,1.3207,1.3204,1.3201,1.3206,1.3195,1.3201,1.3203,1.3205,1.3209,1.3155,1.3206,1.3205,1.3205,1.3205,1.3205,0,1.3267,1.3262,1.3266,1.3265,1.3268,1.3253,1.325,1.3254,1.326,1.3257,1.3258,1.3264,1.3267,1.3256,1.3258,1.3264,1.3257,1.3265,1.3265,1.3264,1.3218,1.3214,1.3271,1.3271,1.3271,1.3271,1.3271,1.3271,1.3295,1.3309,1.3301,1.3313,1.3308,1.3315,1.3315,1.3314,1.3311,1.3319,1.3321,1.3315,1.3308,1.3309,1.3312,1.3309,1.331,1.3322,1.3316,1.3273,1.3267,1.3261,1.3257,1.3322,1.3322,1.3361,1.3362,1.3362]}]]